Regional Weather Roundup
Issued by NWS

Home | Current Version | Previous Version | Text Only | Print | Product List | Glossary On
Versions: 1 2 3 4 5 6 7 8 9 10 11 12 13 14 15 16 17 18 19 20 21 22 23 24 25 26 27 28 29 30 31 32 33 34 35 36 37 38 39 40 41 42 43 44 45 46 47 48 49 50
727
ASUS43 KLOT 260108
RWRIL

ILLINOIS REGIONAL WEATHER ROUNDUP
NATIONAL WEATHER SERVICE CHICAGO/ROMEOVILLE IL
800 PM CDT WED MAY 25 2016

NOTE: "FAIR" INDICATES FEW OR NO CLOUDS BELOW 12,000 FEET WITH NO
SIGNIFICANT WEATHER AND/OR OBSTRUCTIONS TO VISIBILITY.

* THESE STATIONS ARE NOT UNDER NWS QUALITY CONTROL. THEY ALSO MAY NOT
  REPORT WEATHER SUCH AS PRECIPITATION OR FOG.

ILZ001-002-007-009-015-016-024-260200-
NORTHWEST ILLINOIS

CITY           SKY/WX    TMP DP  RH WIND       PRES   REMARKS
MOLINE         PTCLDY    81  59  47 SW6       29.86R HX  81
STERLING*      PTCLDY    81  61  50 SW7       29.87R HX  82
SAVANNA*       PTCLDY    80  59  48 SW9       29.86R HX  81
$$

ILZ003-004-008-010-011-017-018-260200-
NORTH CENTRAL ILLINOIS

CITY           SKY/WX    TMP DP  RH WIND       PRES   REMARKS
ROCKFORD       CLOUDY    72  65  78 E5        29.89R
FREEPORT*      CLEAR     75  59  58 E12       29.90R
ROCHELLE*      MOCLDY    69  67  93 E9        29.89R
DE KALB*       CLOUDY    69  67  94 N6        29.91R
$$

ILZ005-006-012>014-019>023-260200-
NORTHEAST ILLINOIS

CITY           SKY/WX    TMP DP  RH WIND       PRES   REMARKS
CHICAGO-OHARE  LGT RAIN  68  64  87 NE10      29.91F
CHICAGO-MIDWAY CLOUDY    68  64  87 NE10      29.91F
AURORA         CLOUDY    69  66  90 E9        29.92R
LANSING*       CLOUDY    69  64  83 N9        29.93R
JOLIET*        CLOUDY    70  67  92 NE6       29.92R
WAUKEGAN       CLOUDY    66  64  93 SE9       29.91S
DUPAGE AIRPORT TSTM      67  63  87 E9        29.90F FOG
KANKAKEE*      MOCLDY   N/A N/A N/A S12       29.93R
WHEELING       TSTM      66  64  93 E10       29.92S FOG
MORRIS*        CLOUDY    73  64  74 E7        29.91R
ROMEOVILLE*    CLOUDY    67  63  85 N3        29.94R
NORTHERLY ISL    N/A     65  61  87 N8          N/A
NORTHERLY ISL    N/A     65  61  87 N8          N/A
$$

LMZ740>746-260200-
SOUTHERN LAKE MICHIGAN

STATION/POSITION SKY/WX   TEMP    WIND        PRES    VSBY  WAVE
                          AIR SEA DIR/SP/G                  HT/PER
                          (F)     (DEG/KT/KT) (MB)    (MI)  (FT/S)
SOUTHERN BUOY              57 52  160/ 17/ 17 1013.2R         0
WILMETTE HARBOR            63 56  200/ 10/ 17   N/A           1/ 2
HARRISON CRIB              66     330/  7/  8   N/A
BURNHAM HARBOR             65     350/  7/ 23   N/A
CALUMET HARBOR                    330/  8/ 15 1012.6R
BURNS HARBOR               66      70/  5/  7 1013.2R
MICHIGAN CITY              69     280/ 14/ 15   N/A
MICHIGAN CITY 6N           65 60  320/  8/ 10   N/A           2/ 3
ST. JOSEPH                 72 64  250/ 17/ 31   N/A           0
$$

ILZ025>027-034>036-040-047-049-050-058-095>099-260200-
WEST-CENTRAL ILLINOIS

CITY           SKY/WX    TMP DP  RH WIND       PRES   REMARKS
QUINCY         CLEAR     78  63  59 S9        29.90R HX  80
GALESBURG*     CLEAR     78  66  65 S10       29.88S HX  80
MACOMB*        CLEAR     80  64  58 S9        29.91R HX  81
JACKSONVILLE*  CLEAR     80  61  52 S12       29.92R HX  81
PITTSFIELD*    CLEAR     79  66  64 S8        29.93R HX  81
$$

ILZ028>032-037-038-041>044-048-051>054-059>061-260200-
CENTRAL ILLINOIS

CITY           SKY/WX    TMP DP  RH WIND       PRES   REMARKS
PONTIAC        PTCLDY    82  65  55 SW13G18   29.93R HX  83
BLOOMINGTON    CLOUDY    78  66  66 SW16G23   29.94R HX  80
DECATUR        CLOUDY    77  66  68 S12       29.95R
PEORIA         PTCLDY    79  64  60 S10       29.90R HX  81
LACON*         CLEAR     79  64  61 SW9       29.89R HX  80
LINCOLN*       CLOUDY    80  67  64 S7        29.92R HX  82
SPRINGFIELD    PTCLDY    78  67  68 S14       29.92R HX  80
TAYLORVILLE    PTCLDY    76  66  71 S14       29.95R
$$

ILZ033-039-045-046-055>057-062-063-260200-
EAST-CENTRAL ILLINOIS

CITY           SKY/WX    TMP DP  RH WIND       PRES   REMARKS
CHAMPAIGN      CLOUDY    76  64  66 S13       29.96R
RANTOUL*       CLOUDY    78  65  64 S14       29.96R HX  80
MATTOON        CLOUDY    73  64  73 S8        29.97R
PARIS*         CLOUDY    73  64  71 S9        29.99R
$$

ILZ079-100>102-260200-
SOUTHWEST ILLINOIS

CITY           SKY/WX    TMP DP  RH WIND       PRES   REMARKS
ALTON          PTCLDY    75  66  73 S12       29.96R
BELLEVILLE     PTCLDY    75  69  81 VRB6      29.96R
CAHOKIA*       CLOUDY    77  67  71 S9        29.95R
SPARTA*        MOCLDY    75  68  79 S9        29.99S
$$

ILZ064>066-069>071-074>076-080>082-084>086-088>090-092>094-260200-
SOUTH-CENTRAL ILLINOIS

CITY           SKY/WX    TMP DP  RH WIND       PRES   REMARKS
CARBONDALE     CLOUDY    74  67  78 S14G23    30.01R
CAIRO*         CLOUDY    71  66  84 S13       30.04F
EFFINGHAM*     CLOUDY    73  68  83 S9        30.00R
MARION         CLOUDY    73  70  88 S14       30.02R
MT. VERNON     MOCLDY    73  64  73 S10       30.01R
CENTRALIA*     CLOUDY    73  69  88 S10       29.98R
SALEM*         CLOUDY    74  68  79 S10       29.99R
METROPOLIS*    CLOUDY    71  69  95 S3        30.05F
$$

ILZ067-068-072-073-078-083-087-091-260200-
SOUTHEAST ILLINOIS

CITY           SKY/WX    TMP DP  RH WIND       PRES   REMARKS
LAWRENCEVILLE  CLOUDY    74  66  76 S14       30.01R
FLORA*         MOCLDY    74  67  79 S14       29.99R
FAIRFIELD*     CLOUDY    72  67  85 S10       29.99S
HARRISBURG*    CLOUDY    72  67  87 S16       30.02R
ROBINSON*      PTCLDY    70  65  85 S7        30.01R
CARMI*         MOCLDY    71  67  87 S16G22    30.00S
$$

ABBREVIATIONS USED IN REMARKS
   TC - TEMPERATURE IN CELSIUS
  WCI - WIND CHILL INDEX
   HX - HEAT INDEX
  VSB - VISIBILITY
$$





USA.gov is the U.S. government's official web portal to all federal, state and local government web resources and services.